Погода в Бирюковке

Россия / Астраханская область     46°19′16″N   48°18′54″E
темп.,
°C
ветер,
м/с
пор.,
м/с
влажн.,
%
обл.,
%
осадки,
мм/ч
давл.,
гПа
погр.,
м
19 сентября, вс
вс1901:00+12вюв34755 0.0 102054
04:00+12в34685 0.0 102047
07:00+12всв3765100 0.0 1020127
10:00+19вюв7841100 0.0 10201267
13:00+21вюв7738100 0.0 10201446
16:00+20вюв784099 0.0 10191242
19:00+16в5105872 0.0 1019377
22:00+14в41170100 0.0 1018292
20 сентября, пн
пн2001:00+13всв411725 0.0 1017252
04:00+14в411769 0.0 1016262
07:00+15в4118138 0.0 1015239
10:00+23юв6740100 0.0 1014763
13:00+24юв5649100 0.4 1014947
16:00+21юв5667100 0.9 1014516
19:00+18юв3484100 0.0 101466
22:00+17ююв3393100 0.0 101553
21 сентября, вт
вт2101:00+17ю239397 0.0 101438
04:00+17зюз229298 0.0 101515
07:00+17в2390100 0.0 101540
10:00+23с3357100 0.0 1016620
13:00+26св2242100 0.0 10151632
16:00+25св3445100 0.1 10141186
19:00+20юв3650100 0.0 101495
22:00+18вюв3452100 0.0 101383
22 сентября, ср
ср2201:00+17вюв2255100 0.0 101122
04:00+16з1152100 0.0 101111
07:00+15ссз6975100 0.0 1012362
10:00+19ссв455580 0.0 1012552
13:00+23с5544100 0.0 10111173
16:00+22ссз6649100 0.0 10121103
19:00+17с5773100 0.1 1012365
22:00+15с4690100 0.8 1012239
23 сентября, чт
чт2301:00+15с3690100 0.1 1011264
04:00+16с41086100 0.1 1010388
07:00+16с51179100 0.0 1010412
10:00+18с6962100 0.0 1009711
13:00+22с783859 0.0 10081219
16:00+22ссв77295 0.0 10071223
19:00+18ссв47435 0.0 1007114
22:00+15ссв3859100 0.0 1006158